HKE628 VHHH-RJTT

Flight info

Callsign HKE628
Flight time 3h 20m
Altitude 39000
Route DALOL V631 ENVAR M750 BILLY Y21 AKSEL
Aircraft A21N/M-SDE2E3FGHIRWXY/LB1

Departure

Time 2026-05-04 12:06
Airport Hong Kong International Airport (VHHH)

Arrival

Time 2026-05-04 15:27
Airport Tokyo Haneda International Airport (RJTT)
Time Latitude Longitude Altitude Speed Heading
2026-05-04 11:31 22.30769 113.91962 35 ft 0 kts 251°
2026-05-04 11:53 22.30775 113.91980 37 ft 4 kts 251°
2026-05-04 11:55 22.30838 113.92023 36 ft 0 kts 161°
2026-05-04 11:58 22.30814 113.92033 37 ft 2 kts 158°
2026-05-04 11:58 22.30785 113.92060 37 ft 11 kts 123°
2026-05-04 11:59 22.30762 113.92141 36 ft 11 kts 134°
2026-05-04 11:59 22.30731 113.92157 37 ft 0 kts 159°
2026-05-04 12:00 22.30727 113.92158 37 ft 4 kts 159°
2026-05-04 12:00 22.30669 113.92151 37 ft 15 kts 216°
2026-05-04 12:00 22.30611 113.91999 37 ft 27 kts 251°
2026-05-04 12:00 22.30540 113.91778 37 ft 35 kts 250°
2026-05-04 12:01 22.30460 113.91524 37 ft 33 kts 251°
2026-05-04 12:01 22.30379 113.91278 37 ft 38 kts 251°
2026-05-04 12:02 22.30007 113.90126 37 ft 32 kts 251°
2026-05-04 12:03 22.29943 113.89928 37 ft 25 kts 251°
2026-05-04 12:03 22.29884 113.89757 37 ft 20 kts 237°
2026-05-04 12:03 22.29764 113.89759 37 ft 19 kts 161°
2026-05-04 12:03 22.29732 113.89771 37 ft 0 kts 161°
2026-05-04 12:05 22.29673 113.89796 37 ft 19 kts 149°
2026-05-04 12:05 22.29664 113.89934 37 ft 43 kts 72°
2026-05-04 12:05 22.29843 113.90485 35 ft 111 kts 71°
2026-05-04 12:05 22.30165 113.91480 41 ft 164 kts 71°
2026-05-04 12:06 22.30549 113.92672 540 ft 172 kts 71°
2026-05-04 12:06 22.30965 113.93889 1273 ft 170 kts 72°
2026-05-04 12:06 22.31355 113.95085 2007 ft 172 kts 72°
2026-05-04 12:06 22.31768 113.96361 2433 ft 188 kts 72°
2026-05-04 12:07 22.32212 113.97731 2939 ft 199 kts 72°
2026-05-04 12:07 22.32683 113.99183 3445 ft 210 kts 72°
2026-05-04 12:07 22.33178 114.00709 3935 ft 220 kts 72°
2026-05-04 12:07 22.33694 114.02304 4443 ft 230 kts 72°
2026-05-04 12:08 22.34231 114.03968 4939 ft 240 kts 71°
2026-05-04 12:08 22.34791 114.05704 5446 ft 250 kts 71°
2026-05-04 12:08 22.35373 114.07507 5878 ft 264 kts 70°
2026-05-04 12:08 22.35987 114.09411 6383 ft 272 kts 70°
2026-05-04 12:09 22.36612 114.11346 6960 ft 274 kts 70°
2026-05-04 12:09 22.37246 114.13311 7551 ft 280 kts 71°
2026-05-04 12:09 22.37492 114.15391 8159 ft 283 kts 98°
2026-05-04 12:09 22.36878 114.17395 8782 ft 282 kts 127°
2026-05-04 12:10 22.35530 114.18923 9343 ft 284 kts 146°
2026-05-04 12:10 22.33942 114.20252 9859 ft 294 kts 147°
2026-05-04 12:10 22.32375 114.21752 10255 ft 310 kts 139°
2026-05-04 12:10 22.30792 114.23451 10452 ft 331 kts 138°
2026-05-04 12:11 22.29121 114.25267 10641 ft 350 kts 138°
2026-05-04 12:11 22.27377 114.27174 11024 ft 361 kts 138°
2026-05-04 12:11 22.25604 114.29117 11660 ft 364 kts 138°
2026-05-04 12:11 22.23843 114.31045 12242 ft 368 kts 138°
2026-05-04 12:12 22.22038 114.33017 12823 ft 372 kts 138°
2026-05-04 12:12 22.20211 114.35008 13403 ft 375 kts 138°
2026-05-04 12:12 22.18362 114.37019 13967 ft 379 kts 138°
2026-05-04 12:12 22.16500 114.39043 14483 ft 381 kts 138°
2026-05-04 12:13 22.14624 114.41081 14994 ft 384 kts 138°
2026-05-04 12:14 22.01073 114.55763 18266 ft 406 kts 138°
2026-05-04 12:15 21.99074 114.57926 18663 ft 408 kts 138°
2026-05-04 12:15 21.97064 114.60100 19035 ft 411 kts 138°
2026-05-04 12:15 21.95039 114.62288 19419 ft 413 kts 138°
2026-05-04 12:15 21.93006 114.64485 19813 ft 415 kts 138°
2026-05-04 12:16 21.90961 114.66695 20178 ft 418 kts 138°
2026-05-04 12:16 21.88898 114.68921 20548 ft 421 kts 138°
2026-05-04 12:16 21.86825 114.71158 20911 ft 423 kts 139°
2026-05-04 12:16 21.84739 114.73407 21275 ft 426 kts 139°
2026-05-04 12:17 21.82641 114.75670 21643 ft 428 kts 139°
2026-05-04 12:17 21.80733 114.78091 21974 ft 436 kts 126°
2026-05-04 12:17 21.79381 114.81036 22299 ft 443 kts 110°
2026-05-04 12:17 21.78735 114.84297 22614 ft 449 kts 95°
2026-05-04 12:18 21.78795 114.87663 22945 ft 453 kts 84°
2026-05-04 12:18 21.79175 114.91040 23259 ft 456 kts 82°
2026-05-04 12:18 21.79597 114.94434 23577 ft 459 kts 83°
2026-05-04 12:18 21.79977 114.97850 23856 ft 461 kts 84°
2026-05-04 12:19 21.80312 115.01286 24137 ft 463 kts 85°
2026-05-04 12:19 21.80618 115.04742 24407 ft 465 kts 85°
2026-05-04 12:19 21.80909 115.08216 24678 ft 467 kts 85°
2026-05-04 12:19 21.81196 115.11705 24938 ft 469 kts 85°
2026-05-04 12:20 21.81478 115.15166 25199 ft 471 kts 85°
2026-05-04 12:20 21.81766 115.18688 25456 ft 473 kts 86°
2026-05-04 12:20 21.82055 115.22222 25712 ft 475 kts 86°
2026-05-04 12:20 21.82345 115.25778 25959 ft 477 kts 86°
2026-05-04 12:21 21.82636 115.29343 26199 ft 480 kts 86°
2026-05-04 12:21 21.82927 115.32919 26440 ft 481 kts 86°
2026-05-04 12:21 21.83220 115.36521 26678 ft 483 kts 86°
2026-05-04 12:21 21.83512 115.40129 26911 ft 485 kts 86°
2026-05-04 12:22 21.83805 115.43752 27137 ft 487 kts 86°
2026-05-04 12:22 21.84097 115.47384 27364 ft 488 kts 86°
2026-05-04 12:22 21.84387 115.50982 27583 ft 490 kts 86°
2026-05-04 12:22 21.84680 115.54640 27798 ft 492 kts 86°
2026-05-04 12:23 21.84974 115.58313 28002 ft 493 kts 86°
2026-05-04 12:23 21.85267 115.61997 28222 ft 495 kts 86°
2026-05-04 12:23 21.85561 115.65691 28422 ft 496 kts 86°
2026-05-04 12:23 21.85854 115.69395 28625 ft 498 kts 86°
2026-05-04 12:24 21.86149 115.73113 28820 ft 499 kts 86°
2026-05-04 12:24 21.86443 115.76846 29020 ft 501 kts 86°
2026-05-04 12:24 21.86737 115.80584 29207 ft 502 kts 87°
2026-05-04 12:24 21.87028 115.84283 29384 ft 503 kts 87°
2026-05-04 12:25 21.87322 115.88044 29569 ft 505 kts 87°
2026-05-04 12:25 21.87616 115.91813 29747 ft 506 kts 87°
2026-05-04 12:25 21.87910 115.95596 29934 ft 508 kts 87°
2026-05-04 12:25 21.88203 115.99385 30110 ft 509 kts 87°
2026-05-04 12:26 21.88497 116.03188 30268 ft 511 kts 87°
2026-05-04 12:26 21.88791 116.07001 30409 ft 512 kts 87°
2026-05-04 12:26 21.89279 116.13373 30658 ft 515 kts 87°
2026-05-04 12:27 21.89667 116.18472 30857 ft 517 kts 87°
2026-05-04 12:27 21.89961 116.22333 31011 ft 518 kts 87°
2026-05-04 12:27 21.90254 116.26205 31191 ft 519 kts 87°
2026-05-04 12:27 21.90547 116.30084 31394 ft 520 kts 87°
2026-05-04 12:28 21.90839 116.33959 31591 ft 520 kts 86°
2026-05-04 12:28 21.91032 116.36528 31720 ft 520 kts 86°
2026-05-04 12:28 21.91322 116.40406 31909 ft 520 kts 86°
2026-05-04 12:28 21.91613 116.44290 32099 ft 520 kts 86°
2026-05-04 12:29 21.91996 116.49439 32353 ft 521 kts 86°
2026-05-04 12:29 21.92190 116.52062 32463 ft 521 kts 86°
2026-05-04 12:29 21.92478 116.55951 32635 ft 521 kts 86°
2026-05-04 12:29 21.92859 116.61108 32868 ft 521 kts 86°
2026-05-04 12:30 21.93048 116.63683 32975 ft 522 kts 86°
2026-05-04 12:30 21.93334 116.67578 33145 ft 522 kts 86°
2026-05-04 12:30 21.93619 116.71473 33302 ft 522 kts 86°
2026-05-04 12:30 21.93903 116.75372 33456 ft 522 kts 86°
2026-05-04 12:31 21.94186 116.79273 33608 ft 522 kts 86°
2026-05-04 12:31 21.94469 116.83174 33782 ft 522 kts 86°
2026-05-04 12:31 21.94750 116.87074 33922 ft 523 kts 86°
2026-05-04 12:31 21.95122 116.92241 34098 ft 523 kts 86°
2026-05-04 12:32 21.95402 116.96144 34238 ft 522 kts 86°
2026-05-04 12:32 21.95864 117.02622 34476 ft 521 kts 86°
2026-05-04 12:32 21.96140 117.06510 34606 ft 521 kts 86°
2026-05-04 12:33 21.96415 117.10396 34737 ft 520 kts 86°
2026-05-04 12:33 21.96689 117.14285 34857 ft 520 kts 86°
2026-05-04 12:33 21.96962 117.18164 34984 ft 519 kts 86°
2026-05-04 12:33 21.97234 117.22041 35109 ft 519 kts 86°
2026-05-04 12:34 21.97504 117.25917 35228 ft 518 kts 86°
2026-05-04 12:34 21.97770 117.29735 35347 ft 518 kts 86°
2026-05-04 12:34 21.98038 117.33602 35462 ft 517 kts 86°
2026-05-04 12:34 21.98306 117.37466 35578 ft 517 kts 86°
2026-05-04 12:35 21.98572 117.41322 35682 ft 517 kts 86°
2026-05-04 12:35 21.98855 117.45177 35786 ft 516 kts 83°
2026-05-04 12:35 21.99541 117.48962 35871 ft 515 kts 72°
2026-05-04 12:36 22.02524 117.55917 36005 ft 511 kts 55°
2026-05-04 12:36 22.06228 117.62387 36184 ft 510 kts 56°
2026-05-04 12:37 22.09929 117.68913 36363 ft 510 kts 56°
2026-05-04 12:37 22.13628 117.75444 36517 ft 510 kts 56°
2026-05-04 12:38 22.17321 117.81973 36688 ft 510 kts 56°
2026-05-04 12:38 22.20985 117.88459 36833 ft 509 kts 56°
2026-05-04 12:39 22.24667 117.94985 36964 ft 509 kts 56°
2026-05-04 12:39 22.28352 118.01518 37087 ft 509 kts 56°
2026-05-04 12:40 22.32121 118.07985 37205 ft 509 kts 55°
2026-05-04 12:40 22.35909 118.14445 37293 ft 509 kts 55°
2026-05-04 12:41 22.39657 118.20870 37392 ft 509 kts 55°
2026-05-04 12:41 22.43381 118.27376 37483 ft 509 kts 56°
2026-05-04 12:42 22.47069 118.33919 37556 ft 509 kts 56°
2026-05-04 12:42 22.50760 118.40455 37634 ft 509 kts 56°
2026-05-04 12:43 22.54456 118.46997 37707 ft 509 kts 56°
2026-05-04 12:43 22.58128 118.53494 37781 ft 509 kts 56°
2026-05-04 12:44 22.61848 118.60017 37849 ft 509 kts 56°
2026-05-04 12:44 22.65567 118.66541 37919 ft 509 kts 56°
2026-05-04 12:45 22.69283 118.73074 37970 ft 509 kts 56°
2026-05-04 12:45 22.72992 118.79607 38033 ft 509 kts 56°
2026-05-04 12:46 22.76658 118.86072 38095 ft 509 kts 56°
2026-05-04 12:46 22.80371 118.92630 38157 ft 508 kts 56°
2026-05-04 12:47 22.84063 118.99155 38220 ft 508 kts 56°
2026-05-04 12:47 22.87749 119.05680 38271 ft 507 kts 56°
2026-05-04 12:48 22.91432 119.12208 38323 ft 507 kts 56°
2026-05-04 12:48 22.95080 119.18682 38372 ft 506 kts 56°
2026-05-04 12:49 22.98746 119.25197 38428 ft 505 kts 56°
2026-05-04 12:49 23.02404 119.31706 38463 ft 505 kts 56°
2026-05-04 12:50 23.06056 119.38210 38487 ft 505 kts 56°
2026-05-04 12:50 23.09680 119.44676 38516 ft 504 kts 56°
2026-05-04 12:51 23.13319 119.51175 38552 ft 503 kts 56°
2026-05-04 12:51 23.15144 119.54437 38442 ft 506 kts 56°
2026-05-04 12:51 23.16978 119.57715 38301 ft 510 kts 56°
2026-05-04 12:52 23.20675 119.64325 38207 ft 513 kts 56°
2026-05-04 12:52 23.24374 119.70946 38277 ft 512 kts 56°
2026-05-04 12:53 23.28038 119.77515 38338 ft 511 kts 56°
2026-05-04 12:53 23.31725 119.84133 38333 ft 512 kts 56°
2026-05-04 12:54 23.35417 119.90768 38335 ft 513 kts 56°
2026-05-04 12:54 23.39109 119.97410 38356 ft 513 kts 56°
2026-05-04 12:55 23.42778 120.04021 38369 ft 513 kts 56°
2026-05-04 12:55 23.46469 120.10678 38385 ft 514 kts 56°
2026-05-04 12:56 23.50160 120.17344 38402 ft 514 kts 56°
2026-05-04 12:56 23.53853 120.24021 38409 ft 515 kts 56°
2026-05-04 12:57 23.57523 120.30664 38432 ft 515 kts 56°
2026-05-04 12:57 23.61215 120.37356 38445 ft 515 kts 56°
2026-05-04 12:58 23.64907 120.44055 38470 ft 516 kts 56°
2026-05-04 12:58 23.68601 120.50765 38485 ft 516 kts 56°
2026-05-04 12:59 23.72270 120.57439 38506 ft 516 kts 56°
2026-05-04 12:59 23.75962 120.64161 38525 ft 517 kts 56°
2026-05-04 13:00 23.79657 120.70894 38531 ft 517 kts 56°
2026-05-04 13:00 23.83353 120.77636 38584 ft 517 kts 56°
2026-05-04 13:01 23.87043 120.84375 38615 ft 517 kts 56°
2026-05-04 13:01 23.90710 120.91080 38627 ft 518 kts 56°
2026-05-04 13:02 23.94405 120.97840 38661 ft 518 kts 56°
2026-05-04 13:02 23.98096 121.04599 38702 ft 518 kts 56°
2026-05-04 13:03 24.01782 121.11355 38721 ft 518 kts 56°
2026-05-04 13:03 24.05492 121.18103 38782 ft 517 kts 56°
2026-05-04 13:04 24.09231 121.24743 38701 ft 517 kts 55°
2026-05-04 13:04 24.13201 121.31276 38516 ft 512 kts 47°
2026-05-04 13:04 24.15570 121.34163 38239 ft 509 kts 38°
2026-05-04 13:05 24.18282 121.36604 37954 ft 501 kts 28°
2026-05-04 13:05 24.24071 121.40727 37777 ft 498 kts 28°
2026-05-04 13:05 24.26911 121.42968 37446 ft 507 kts 34°
2026-05-04 13:06 24.29678 121.45404 37063 ft 512 kts 34°
2026-05-04 13:06 24.32354 121.47893 36752 ft 511 kts 36°
2026-05-04 13:06 24.35034 121.50447 36346 ft 509 kts 36°
2026-05-04 13:06 24.37697 121.52998 35696 ft 507 kts 36°
2026-05-04 13:07 24.40354 121.55532 35214 ft 505 kts 35°
2026-05-04 13:07 24.45684 121.60584 35183 ft 509 kts 35°
2026-05-04 13:08 24.51069 121.65683 35182 ft 515 kts 35°
2026-05-04 13:08 24.56470 121.70806 35179 ft 517 kts 35°
2026-05-04 13:09 24.61907 121.75967 35187 ft 517 kts 35°
2026-05-04 13:09 24.67338 121.81132 35173 ft 517 kts 35°
2026-05-04 13:10 24.72778 121.86311 35170 ft 517 kts 35°
2026-05-04 13:10 24.78184 121.91462 35168 ft 518 kts 35°
2026-05-04 13:11 24.83630 121.96660 35165 ft 518 kts 35°
2026-05-04 13:11 24.89079 122.01866 35164 ft 519 kts 35°
2026-05-04 13:12 24.94531 122.07080 35164 ft 519 kts 35°
2026-05-04 13:12 24.99986 122.12305 35166 ft 520 kts 35°
2026-05-04 13:13 25.05403 122.17499 35164 ft 520 kts 35°
2026-05-04 13:13 25.10859 122.22737 35167 ft 520 kts 35°
2026-05-04 13:14 25.16320 122.27985 35163 ft 520 kts 34°
2026-05-04 13:14 25.21775 122.33235 35165 ft 520 kts 34°
2026-05-04 13:15 25.27231 122.38491 35157 ft 520 kts 34°
2026-05-04 13:15 25.32650 122.43719 35160 ft 521 kts 34°
2026-05-04 13:16 25.38105 122.48988 35156 ft 521 kts 34°
2026-05-04 13:16 25.43560 122.54264 35156 ft 521 kts 34°
2026-05-04 13:17 25.49011 122.59542 35157 ft 521 kts 34°
2026-05-04 13:17 25.54470 122.64834 35155 ft 521 kts 34°
2026-05-04 13:18 25.59889 122.70095 35156 ft 522 kts 34°
2026-05-04 13:18 25.65347 122.75400 35160 ft 522 kts 34°
2026-05-04 13:19 25.70812 122.80718 35156 ft 523 kts 34°
2026-05-04 13:19 25.76276 122.86043 35157 ft 523 kts 34°
2026-05-04 13:20 25.81713 122.91348 35160 ft 524 kts 34°
2026-05-04 13:20 25.87192 122.96706 35156 ft 526 kts 36°
2026-05-04 13:21 25.92405 123.02470 35171 ft 532 kts 42°
2026-05-04 13:21 25.97225 123.08753 35171 ft 535 kts 44°
2026-05-04 13:22 26.02024 123.15079 35175 ft 536 kts 44°
2026-05-04 13:22 26.06800 123.21374 35181 ft 536 kts 44°
2026-05-04 13:23 26.11607 123.27721 35184 ft 537 kts 44°
2026-05-04 13:23 26.16418 123.34082 35173 ft 537 kts 44°
2026-05-04 13:24 26.21231 123.40455 35175 ft 538 kts 44°
2026-05-04 13:24 26.26038 123.46829 35178 ft 538 kts 44°
2026-05-04 13:25 26.33226 123.56377 35181 ft 538 kts 44°
2026-05-04 13:25 26.38035 123.62778 35180 ft 539 kts 44°
2026-05-04 13:26 26.42844 123.69186 35179 ft 539 kts 44°
2026-05-04 13:26 26.47656 123.75609 35182 ft 539 kts 44°
2026-05-04 13:27 26.52435 123.81995 35177 ft 540 kts 44°
2026-05-04 13:27 26.57243 123.88430 35183 ft 540 kts 44°
2026-05-04 13:28 26.62051 123.94874 35183 ft 540 kts 45°
2026-05-04 13:28 26.66859 124.01326 35182 ft 540 kts 44°
2026-05-04 13:29 26.71680 124.07774 35187 ft 540 kts 44°
2026-05-04 13:29 26.76467 124.14181 35186 ft 540 kts 44°
2026-05-04 13:30 26.81283 124.20640 35182 ft 541 kts 44°
2026-05-04 13:30 26.86098 124.27108 35183 ft 541 kts 45°
2026-05-04 13:31 26.90912 124.33584 35184 ft 541 kts 45°
2026-05-04 13:31 26.95692 124.40023 35184 ft 541 kts 45°
2026-05-04 13:32 27.00505 124.46515 35181 ft 541 kts 45°
2026-05-04 13:32 27.05317 124.53011 35179 ft 542 kts 45°
2026-05-04 13:33 27.10136 124.59525 35178 ft 542 kts 45°
2026-05-04 13:33 27.14916 124.65998 35180 ft 543 kts 45°
2026-05-04 13:34 27.19735 124.72532 35183 ft 543 kts 45°
2026-05-04 13:34 27.24552 124.79075 35188 ft 544 kts 45°
2026-05-04 13:35 27.31781 124.88909 35186 ft 544 kts 45°
2026-05-04 13:36 27.36570 124.95439 35189 ft 545 kts 45°
2026-05-04 13:36 27.41393 125.02015 35185 ft 545 kts 45°
2026-05-04 13:37 27.46252 125.08569 35187 ft 545 kts 44°
2026-05-04 13:37 27.51117 125.15123 35187 ft 545 kts 44°
2026-05-04 13:38 27.55977 125.21690 35187 ft 546 kts 45°
2026-05-04 13:38 27.60799 125.28219 35187 ft 546 kts 45°
2026-05-04 13:39 27.65656 125.34809 35188 ft 546 kts 45°
2026-05-04 13:39 27.70510 125.41404 35188 ft 546 kts 45°
2026-05-04 13:40 27.75365 125.48011 35190 ft 547 kts 45°
2026-05-04 13:40 27.80184 125.54578 35187 ft 547 kts 45°
2026-05-04 13:41 27.85035 125.61199 35188 ft 547 kts 45°
2026-05-04 13:41 27.89885 125.67830 35184 ft 547 kts 45°
2026-05-04 13:42 27.97124 125.77745 35189 ft 548 kts 45°
2026-05-04 13:42 28.01969 125.84395 35179 ft 548 kts 45°
2026-05-04 13:43 28.06816 125.91057 35182 ft 548 kts 45°
2026-05-04 13:43 28.11663 125.97730 35180 ft 549 kts 45°
2026-05-04 13:44 28.16510 126.04413 35187 ft 549 kts 45°
2026-05-04 13:44 28.21324 126.11060 35180 ft 550 kts 45°
2026-05-04 13:45 28.26175 126.17770 35184 ft 550 kts 45°
2026-05-04 13:45 28.31022 126.24486 35178 ft 551 kts 45°
2026-05-04 13:46 28.35874 126.31218 35185 ft 551 kts 46°
2026-05-04 13:46 28.40725 126.37960 35192 ft 551 kts 46°
2026-05-04 13:47 28.45575 126.44711 35189 ft 552 kts 46°
2026-05-04 13:47 28.50393 126.51430 35186 ft 552 kts 46°
2026-05-04 13:48 28.55247 126.58208 35183 ft 553 kts 46°
2026-05-04 13:48 28.60099 126.64996 35181 ft 553 kts 46°
2026-05-04 13:49 28.64953 126.71796 35179 ft 554 kts 46°
2026-05-04 13:49 28.69779 126.78568 35179 ft 554 kts 46°
2026-05-04 13:50 28.74634 126.85392 35182 ft 555 kts 46°
2026-05-04 13:50 28.79494 126.92235 35181 ft 555 kts 46°
2026-05-04 13:51 28.84355 126.99090 35185 ft 556 kts 46°
2026-05-04 13:51 28.89183 127.05911 35185 ft 557 kts 46°
2026-05-04 13:52 28.96483 127.16245 35175 ft 558 kts 46°
2026-05-04 13:53 29.01356 127.23157 35170 ft 559 kts 46°
2026-05-04 13:53 29.06231 127.30082 35177 ft 559 kts 46°
2026-05-04 13:54 29.13513 127.40453 35190 ft 560 kts 46°
2026-05-04 13:55 29.20828 127.50895 35194 ft 561 kts 46°
2026-05-04 13:55 29.28147 127.61369 35176 ft 562 kts 46°
2026-05-04 13:56 29.32995 127.68322 35180 ft 562 kts 46°
2026-05-04 13:57 29.40312 127.78838 35181 ft 562 kts 46°
2026-05-04 13:58 29.50060 127.92884 35178 ft 563 kts 46°
2026-05-04 13:58 29.57332 128.03393 35178 ft 563 kts 46°
2026-05-04 13:59 29.62196 128.10436 35174 ft 563 kts 46°
2026-05-04 14:00 29.69493 128.21019 35169 ft 563 kts 46°
2026-05-04 14:00 29.76783 128.31620 35167 ft 563 kts 46°
2026-05-04 14:01 29.81607 128.38650 35167 ft 563 kts 47°
2026-05-04 14:02 29.88892 128.49289 35167 ft 564 kts 47°
2026-05-04 14:02 29.93745 128.56392 35165 ft 564 kts 47°
2026-05-04 14:03 29.98600 128.63511 35168 ft 565 kts 47°
2026-05-04 14:03 30.03424 128.70597 35167 ft 565 kts 47°
2026-05-04 14:04 30.10707 128.81319 35174 ft 566 kts 47°
2026-05-04 14:04 30.15562 128.88481 35172 ft 566 kts 47°
2026-05-04 14:05 30.22811 128.99199 35170 ft 567 kts 47°
2026-05-04 14:06 30.27661 129.06389 35171 ft 567 kts 47°
2026-05-04 14:06 30.32510 129.13589 35173 ft 567 kts 47°
2026-05-04 14:07 30.37357 129.20799 35168 ft 568 kts 47°
2026-05-04 14:07 30.42203 129.28020 35175 ft 567 kts 47°
2026-05-04 14:08 30.47008 129.35193 35168 ft 567 kts 47°
2026-05-04 14:08 30.51838 129.42418 35168 ft 567 kts 47°
2026-05-04 14:09 30.59072 129.53259 35175 ft 566 kts 47°
2026-05-04 14:10 30.66286 129.64100 35183 ft 565 kts 48°
2026-05-04 14:10 30.71047 129.71273 35178 ft 564 kts 48°
2026-05-04 14:11 30.75826 129.78486 35165 ft 563 kts 48°
2026-05-04 14:11 30.82973 129.89310 35156 ft 562 kts 49°
2026-05-04 14:12 30.87294 129.96846 35152 ft 565 kts 56°
2026-05-04 14:13 30.93479 130.08504 35149 ft 564 kts 55°
2026-05-04 14:13 30.97606 130.16278 35143 ft 564 kts 55°
2026-05-04 14:14 31.01720 130.24049 35140 ft 564 kts 55°
2026-05-04 14:14 31.07857 130.35675 35141 ft 564 kts 55°
2026-05-04 14:15 31.16065 130.51274 35151 ft 564 kts 56°
2026-05-04 14:16 31.22212 130.62999 35160 ft 565 kts 56°
2026-05-04 14:17 31.28324 130.74693 35159 ft 565 kts 56°
2026-05-04 14:18 31.34463 130.86471 35154 ft 566 kts 56°
2026-05-04 14:19 31.42609 131.02155 35162 ft 566 kts 56°
2026-05-04 14:19 31.46690 131.10036 35162 ft 566 kts 56°
2026-05-04 14:20 31.50768 131.17929 35163 ft 566 kts 56°
2026-05-04 14:20 31.54841 131.25828 35169 ft 566 kts 57°
2026-05-04 14:21 31.60916 131.37640 35142 ft 566 kts 57°
2026-05-04 14:21 31.64975 131.45559 35148 ft 566 kts 57°
2026-05-04 14:22 31.69025 131.53481 35124 ft 566 kts 57°
2026-05-04 14:22 31.73067 131.61403 35130 ft 565 kts 57°
2026-05-04 14:23 31.79080 131.73215 35132 ft 564 kts 57°
2026-05-04 14:24 31.83097 131.81130 35135 ft 563 kts 57°
2026-05-04 14:24 31.87107 131.89044 35139 ft 563 kts 57°
2026-05-04 14:25 31.91109 131.96958 35135 ft 562 kts 58°
2026-05-04 14:25 31.97067 132.08776 35127 ft 562 kts 58°
2026-05-04 14:26 32.01046 132.16688 35123 ft 561 kts 58°
2026-05-04 14:26 32.05020 132.24605 35118 ft 561 kts 58°
2026-05-04 14:27 32.08984 132.32522 35115 ft 561 kts 58°
2026-05-04 14:27 32.12866 132.40439 35110 ft 562 kts 62°
2026-05-04 14:28 32.16372 132.48676 35108 ft 562 kts 63°
2026-05-04 14:28 32.19874 132.56930 35110 ft 563 kts 63°
2026-05-04 14:29 32.26857 132.73455 35107 ft 565 kts 63°
2026-05-04 14:30 32.30363 132.81782 35113 ft 566 kts 63°
2026-05-04 14:31 32.35620 132.94308 35124 ft 568 kts 63°
2026-05-04 14:32 32.42613 133.11037 35138 ft 570 kts 64°
2026-05-04 14:32 32.46120 133.19453 35147 ft 570 kts 64°
2026-05-04 14:33 32.49621 133.27878 35147 ft 570 kts 64°
2026-05-04 14:33 32.53120 133.36318 35142 ft 570 kts 64°
2026-05-04 14:34 32.56585 133.44693 35143 ft 570 kts 64°
2026-05-04 14:34 32.60068 133.53132 35134 ft 569 kts 64°
2026-05-04 14:35 32.63542 133.61572 35125 ft 569 kts 64°
2026-05-04 14:35 32.67003 133.70000 35118 ft 568 kts 64°
2026-05-04 14:36 32.70433 133.78368 35111 ft 567 kts 64°
2026-05-04 14:36 32.73874 133.86784 35105 ft 566 kts 64°
2026-05-04 14:37 32.77306 133.95201 35097 ft 566 kts 65°
2026-05-04 14:37 32.80711 134.03639 35086 ft 566 kts 67°
2026-05-04 14:38 32.83506 134.12369 35078 ft 564 kts 75°
2026-05-04 14:38 32.85715 134.21241 35075 ft 564 kts 76°
2026-05-04 14:39 32.87939 134.30186 35074 ft 564 kts 76°
2026-05-04 14:39 32.90166 134.39150 35075 ft 565 kts 76°
2026-05-04 14:40 32.93484 134.52572 35088 ft 567 kts 77°
2026-05-04 14:40 32.95704 134.61589 35092 ft 568 kts 77°
2026-05-04 14:41 32.97921 134.70627 35098 ft 569 kts 77°
2026-05-04 14:42 33.02344 134.88746 35109 ft 570 kts 77°
2026-05-04 14:42 33.04534 134.97767 35113 ft 571 kts 77°
2026-05-04 14:43 33.06735 135.06864 35110 ft 571 kts 77°
2026-05-04 14:43 33.08926 135.15953 35109 ft 571 kts 77°
2026-05-04 14:44 33.10730 135.23531 35103 ft 571 kts 78°
2026-05-04 14:44 33.12748 135.32685 35093 ft 570 kts 79°
2026-05-04 14:45 33.15072 135.43318 35084 ft 570 kts 79°
2026-05-04 14:45 33.17082 135.52464 35076 ft 570 kts 79°
2026-05-04 14:46 33.18749 135.60065 35069 ft 570 kts 79°
2026-05-04 14:46 33.20750 135.69218 35065 ft 570 kts 79°
2026-05-04 14:47 33.23064 135.79852 35053 ft 570 kts 79°
2026-05-04 14:47 33.24729 135.87530 35050 ft 570 kts 79°
2026-05-04 14:48 33.26695 135.96637 35047 ft 570 kts 79°
2026-05-04 14:48 33.28672 136.05818 35046 ft 570 kts 79°
2026-05-04 14:49 33.30643 136.15006 35049 ft 571 kts 79°
2026-05-04 14:49 33.32608 136.24204 35047 ft 571 kts 79°
2026-05-04 14:50 33.34568 136.33418 35051 ft 572 kts 79°
2026-05-04 14:50 33.36504 136.42553 35050 ft 572 kts 79°
2026-05-04 14:51 33.38458 136.51810 35051 ft 573 kts 80°
2026-05-04 14:51 33.40402 136.61055 35054 ft 573 kts 80°
2026-05-04 14:52 33.42340 136.70308 35053 ft 573 kts 80°
2026-05-04 14:52 33.44258 136.79505 35056 ft 573 kts 80°
2026-05-04 14:53 33.46184 136.88772 35064 ft 574 kts 80°
2026-05-04 14:53 33.48102 136.98046 35062 ft 573 kts 80°
2026-05-04 14:54 33.50012 137.07315 35065 ft 573 kts 81°
2026-05-04 14:54 33.51903 137.16526 35064 ft 573 kts 81°
2026-05-04 14:55 33.53796 137.25786 35060 ft 572 kts 81°
2026-05-04 14:55 33.55683 137.35058 35058 ft 572 kts 81°
2026-05-04 14:56 33.57559 137.44313 35050 ft 571 kts 81°
2026-05-04 14:56 33.59426 137.53560 35047 ft 570 kts 81°
2026-05-04 14:57 33.61741 137.62610 35040 ft 574 kts 69°
2026-05-04 14:57 33.65329 137.71166 35031 ft 575 kts 61°
2026-05-04 14:58 33.69190 137.79561 35023 ft 574 kts 62°
2026-05-04 14:58 33.73019 137.87943 34534 ft 571 kts 62°
2026-05-04 14:59 33.74901 137.92065 33916 ft 571 kts 62°
2026-05-04 14:59 33.76806 137.96244 33154 ft 570 kts 62°
2026-05-04 14:59 33.80614 138.04617 31576 ft 570 kts 62°
2026-05-04 15:00 33.82513 138.08803 30788 ft 570 kts 62°
2026-05-04 15:00 33.84410 138.12985 30092 ft 569 kts 62°
2026-05-04 15:00 33.86293 138.17146 29436 ft 563 kts 62°
2026-05-04 15:01 33.89992 138.25344 28193 ft 552 kts 62°
2026-05-04 15:01 33.91811 138.29385 27583 ft 547 kts 62°
2026-05-04 15:01 33.93575 138.33338 26984 ft 542 kts 62°
2026-05-04 15:01 33.95346 138.37328 26380 ft 537 kts 62°
2026-05-04 15:02 33.97096 138.41278 25799 ft 533 kts 61°
2026-05-04 15:02 33.98835 138.45201 25227 ft 528 kts 61°
2026-05-04 15:02 34.00557 138.49088 24668 ft 524 kts 61°
2026-05-04 15:02 34.02263 138.52940 24145 ft 519 kts 60°
2026-05-04 15:03 34.03955 138.56762 23609 ft 514 kts 60°
2026-05-04 15:03 34.05608 138.60499 23053 ft 509 kts 60°
2026-05-04 15:03 34.07262 138.64237 22566 ft 501 kts 60°
2026-05-04 15:03 34.08889 138.67917 22052 ft 494 kts 60°
2026-05-04 15:04 34.10494 138.71550 21545 ft 487 kts 60°
2026-05-04 15:04 34.12077 138.75136 21108 ft 479 kts 60°
2026-05-04 15:04 34.13631 138.78660 20964 ft 476 kts 60°
2026-05-04 15:04 34.15195 138.82208 20942 ft 481 kts 60°
2026-05-04 15:05 34.16762 138.85771 20937 ft 481 kts 60°
2026-05-04 15:05 34.18328 138.89338 20935 ft 481 kts 60°
2026-05-04 15:05 34.19894 138.92909 20931 ft 481 kts 61°
2026-05-04 15:05 34.21461 138.96484 20929 ft 481 kts 61°
2026-05-04 15:06 34.23026 139.00059 20925 ft 482 kts 61°
2026-05-04 15:06 34.24588 139.03632 20927 ft 482 kts 61°
2026-05-04 15:06 34.26132 139.07166 20919 ft 480 kts 60°
2026-05-04 15:07 34.29660 139.13966 20511 ft 474 kts 54°
2026-05-04 15:07 34.31455 139.17285 20271 ft 469 kts 54°
2026-05-04 15:07 34.33232 139.20579 20030 ft 467 kts 55°
2026-05-04 15:07 34.34998 139.23867 19790 ft 464 kts 55°
2026-05-04 15:08 34.36745 139.27130 19545 ft 461 kts 55°
2026-05-04 15:08 34.38476 139.30373 19334 ft 457 kts 55°
2026-05-04 15:08 34.40178 139.33563 19098 ft 455 kts 55°
2026-05-04 15:08 34.41888 139.36775 18865 ft 452 kts 55°
2026-05-04 15:09 34.43581 139.39957 18638 ft 449 kts 56°
2026-05-04 15:09 34.45261 139.43120 18411 ft 446 kts 56°
2026-05-04 15:09 34.46941 139.46283 18176 ft 443 kts 56°
2026-05-04 15:10 34.50255 139.52533 17654 ft 439 kts 56°
2026-05-04 15:10 34.51901 139.55641 17385 ft 438 kts 56°
2026-05-04 15:10 34.55151 139.61787 16883 ft 434 kts 55°
2026-05-04 15:11 34.56773 139.64860 16631 ft 432 kts 55°
2026-05-04 15:11 34.58388 139.67921 16379 ft 430 kts 55°
2026-05-04 15:11 34.59995 139.70969 16128 ft 428 kts 55°
2026-05-04 15:11 34.61592 139.74000 15888 ft 426 kts 55°
2026-05-04 15:12 34.63186 139.77030 15643 ft 424 kts 55°
2026-05-04 15:12 34.64772 139.80045 15397 ft 422 kts 55°
2026-05-04 15:12 34.66357 139.83034 15153 ft 420 kts 52°
2026-05-04 15:12 34.68214 139.85662 14925 ft 413 kts 38°
2026-05-04 15:13 34.70504 139.87639 14765 ft 394 kts 19°
2026-05-04 15:13 34.73001 139.88686 14647 ft 367 kts
2026-05-04 15:13 34.75461 139.89236 14524 ft 353 kts
2026-05-04 15:13 34.77830 139.89764 14403 ft 339 kts
2026-05-04 15:14 34.80106 139.90272 14289 ft 326 kts
2026-05-04 15:14 34.82296 139.90757 14075 ft 317 kts
2026-05-04 15:14 34.84465 139.91229 13665 ft 316 kts 360°
2026-05-04 15:14 34.86625 139.91697 13288 ft 313 kts
2026-05-04 15:15 34.88714 139.92153 12922 ft 309 kts
2026-05-04 15:15 34.90831 139.92616 12555 ft 306 kts
2026-05-04 15:15 34.92912 139.93071 12211 ft 301 kts
2026-05-04 15:16 34.96956 139.93497 11449 ft 277 kts 336°
2026-05-04 15:16 34.98736 139.92733 11046 ft 269 kts 330°
2026-05-04 15:16 35.02322 139.91073 9922 ft 281 kts 333°
2026-05-04 15:17 35.04153 139.90241 9518 ft 279 kts 333°
2026-05-04 15:17 35.07598 139.88704 8903 ft 257 kts 334°
2026-05-04 15:17 35.09280 139.87944 8334 ft 257 kts 334°
2026-05-04 15:18 35.10950 139.87186 7828 ft 255 kts 335°
2026-05-04 15:18 35.12604 139.86436 7317 ft 253 kts 336°
2026-05-04 15:18 35.14258 139.85686 6789 ft 253 kts 336°
2026-05-04 15:19 35.17528 139.84209 5860 ft 247 kts 337°
2026-05-04 15:19 35.19100 139.83501 5437 ft 242 kts 338°
2026-05-04 15:19 35.22212 139.82097 4588 ft 234 kts 338°
2026-05-04 15:20 35.23723 139.81412 4161 ft 230 kts 338°
2026-05-04 15:20 35.25208 139.80738 3912 ft 228 kts 339°
2026-05-04 15:20 35.26709 139.80056 3982 ft 232 kts 339°
2026-05-04 15:20 35.28203 139.79380 3986 ft 230 kts 339°
2026-05-04 15:21 35.29698 139.78707 3984 ft 230 kts 338°
2026-05-04 15:21 35.31242 139.78226 3988 ft 232 kts 358°
2026-05-04 15:21 35.34219 139.79816 3986 ft 242 kts 29°
2026-05-04 15:22 35.35620 139.80938 3935 ft 239 kts 29°
2026-05-04 15:22 35.36982 139.82024 3829 ft 226 kts 28°
2026-05-04 15:22 35.39559 139.84049 2782 ft 214 kts 26°
2026-05-04 15:23 35.40829 139.84932 2246 ft 202 kts 13°
2026-05-04 15:23 35.42147 139.85193 2022 ft 186 kts 354°
2026-05-04 15:23 35.43388 139.85144 1992 ft 175 kts 355°
2026-05-04 15:23 35.44565 139.84910 2024 ft 171 kts 341°
2026-05-04 15:24 35.46659 139.83563 1637 ft 173 kts 330°
2026-05-04 15:24 35.48644 139.82145 1163 ft 149 kts 331°
2026-05-04 15:25 35.49474 139.81554 986 ft 126 kts 330°
2026-05-04 15:25 35.50204 139.81030 874 ft 120 kts 331°
2026-05-04 15:25 35.50943 139.80491 719 ft 124 kts 330°
2026-05-04 15:26 35.52384 139.79447 363 ft 117 kts 331°
2026-05-04 15:26 35.53098 139.78966 225 ft 116 kts 332°
2026-05-04 15:26 35.54499 139.77971 23 ft 99 kts 329°
2026-05-04 15:27 35.54935 139.77662 23 ft 47 kts 329°
2026-05-04 15:27 35.55187 139.77406 20 ft 5 kts 265°
2026-05-04 15:28 35.55089 139.77285 20 ft 0 kts 186°
2026-05-04 15:28 35.55038 139.77315 21 ft 17 kts 140°
2026-05-04 15:28 35.54854 139.77362 22 ft 22 kts 238°
2026-05-04 15:29 35.54767 139.77176 26 ft 0 kts 220°
2026-05-04 15:30 35.54841 139.77082 25 ft 0 kts 331°